When you browse on this site, cookies collect data to enhance your experience and personalize the content and advertising you see.
Visit our Privacy Policy to learn more. By continuing to use the site, you agree to this use of cookies and data.
  • In Latvia
  • List of Countries
  • For 7 days
  • Water Temperature
  • Weather Map
  • Weather Widgets
  • user-avatar
    Login

    Hourly Weather Komarkov

    Today, 20 August, Tuesday

    Time Temperature Precipitation Wind Pressure Humidity
    00:00 +26°C° 0 mm 3 mps 755 mmHg 48%
    01:00 +26°C° 0 mm 3 mps 755 mmHg 50%
    02:00 +25°C° 0 mm 2 mps 755 mmHg 52%
    03:00 +24°C° 0 mm 2 mps 755 mmHg 54%
    04:00 +24°C° 0 mm 2 mps 756 mmHg 54%
    05:00 +24°C° 0 mm 2 mps 756 mmHg 54%
    06:00 +24°C° 0 mm 2 mps 756 mmHg 54%
    07:00 +26°C° 0 mm 3 mps 756 mmHg 47%
    08:00 +29°C° 0 mm 3 mps 756 mmHg 41%
    09:00 +31°C° 0 mm 3 mps 756 mmHg 35%
    10:00 +34°C° 0 mm 3 mps 756 mmHg 31%
    11:00 +35°C° 0 mm 3 mps 756 mmHg 28%
    12:00 +37°C° 0 mm 3 mps 756 mmHg 25%
    13:00 +38°C° 0 mm 3 mps 756 mmHg 23%
    14:00 +39°C° 0 mm 3 mps 755 mmHg 21%
    15:00 +40°C° 0 mm 4 mps 755 mmHg 19%
    16:00 +39°C° 0 mm 3 mps 755 mmHg 21%
    17:00 +38°C° 0 mm 3 mps 755 mmHg 22%
    18:00 +37°C° 0 mm 3 mps 755 mmHg 23%
    19:00 +35°C° 0 mm 3 mps 755 mmHg 26%
    20:00 +33°C° 0 mm 3 mps 755 mmHg 28%
    21:00 +30°C° 0 mm 4 mps 755 mmHg 31%
    22:00 +29°C° 0 mm 4 mps 755 mmHg 31%
    23:00 +29°C° 0 mm 4 mps 755 mmHg 31%

    Tomorrow, 21 August, Wednesday

    Time Temperature Precipitation Wind Pressure Humidity
    00:00 +28°C° 0 mm 4 mps 755 mmHg 31%
    01:00 +28°C° 0 mm 3 mps 755 mmHg 33%
    02:00 +27°C° 0 mm 3 mps 755 mmHg 35%
    03:00 +26°C° 0 mm 3 mps 755 mmHg 37%
    04:00 +26°C° 0 mm 3 mps 755 mmHg 40%
    05:00 +25°C° 0 mm 3 mps 755 mmHg 43%
    06:00 +25°C° 0 mm 3 mps 755 mmHg 46%
    07:00 +27°C° 0 mm 3 mps 755 mmHg 41%
    08:00 +30°C° 0 mm 3 mps 755 mmHg 36%
    09:00 +33°C° 0 mm 3 mps 756 mmHg 31%
    10:00 +35°C° 0 mm 4 mps 755 mmHg 26%
    11:00 +36°C° 0 mm 4 mps 755 mmHg 21%
    12:00 +38°C° 0 mm 4 mps 755 mmHg 17%
    13:00 +40°C° 0 mm 4 mps 754 mmHg 16%
    14:00 +40°C° 0 mm 5 mps 754 mmHg 15%
    15:00 +41°C° 0 mm 5 mps 754 mmHg 14%
    16:00 +40°C° 0 mm 4 mps 753 mmHg 15%
    17:00 +38°C° 0 mm 4 mps 753 mmHg 17%
    18:00 +37°C° 0 mm 3 mps 753 mmHg 18%
    19:00 +35°C° 0 mm 3 mps 753 mmHg 20%
    20:00 +33°C° 0 mm 3 mps 753 mmHg 22%
    21:00 +30°C° 0 mm 3 mps 753 mmHg 24%
    22:00 +30°C° 0 mm 4 mps 753 mmHg 30%
    23:00 +29°C° 0 mm 5 mps 753 mmHg 36%

    Day after tomorrow, 22 August, Thursday

    Time Temperature Precipitation Wind Pressure Humidity
    00:00 +29°C° 0 mm 6 mps 753 mmHg 42%
    01:00 +28°C° 0 mm 5 mps 753 mmHg 45%
    02:00 +27°C° 0 mm 5 mps 753 mmHg 48%
    03:00 +27°C° 0 mm 4 mps 753 mmHg 50%
    04:00 +26°C° 0 mm 4 mps 753 mmHg 51%
    05:00 +26°C° 0 mm 4 mps 753 mmHg 52%
    06:00 +25°C° 0 mm 4 mps 753 mmHg 52%
    07:00 +28°C° 0 mm 4 mps 753 mmHg 45%
    08:00 +30°C° 0 mm 4 mps 754 mmHg 38%
    09:00 +33°C° 0 mm 4 mps 754 mmHg 31%
    10:00 +35°C° 0 mm 5 mps 754 mmHg 26%
    11:00 +37°C° 0 mm 5 mps 753 mmHg 21%
    12:00 +40°C° 0 mm 5 mps 753 mmHg 17%
    13:00 +41°C° 0 mm 5 mps 753 mmHg 16%
    14:00 +41°C° 0 mm 5 mps 753 mmHg 15%
    15:00 +42°C° 0 mm 5 mps 752 mmHg 14%
    16:00 +41°C° 0 mm 4 mps 752 mmHg 15%
    17:00 +39°C° 0 mm 3 mps 752 mmHg 17%
    18:00 +38°C° 0 mm 3 mps 752 mmHg 18%
    19:00 +36°C° 0 mm 3 mps 752 mmHg 22%
    20:00 +34°C° 0 mm 3 mps 752 mmHg 25%
    21:00 +31°C° 0 mm 3 mps 753 mmHg 29%
    22:00 +30°C° 0 mm 4 mps 753 mmHg 30%
    23:00 +30°C° 0 mm 4 mps 753 mmHg 32%

    23 August, Friday

    Time Temperature Precipitation Wind Pressure Humidity
    00:00 +29°C° 0 mm 4 mps 753 mmHg 33%
    01:00 +28°C° 0 mm 4 mps 753 mmHg 35%
    02:00 +28°C° 0 mm 4 mps 753 mmHg 37%
    03:00 +27°C° 0 mm 4 mps 753 mmHg 39%
    04:00 +27°C° 0 mm 3 mps 753 mmHg 40%
    05:00 +26°C° 0 mm 3 mps 753 mmHg 42%
    06:00 +26°C° 0 mm 3 mps 753 mmHg 43%
    07:00 +28°C° 0 mm 3 mps 753 mmHg 38%
    08:00 +30°C° 0 mm 3 mps 753 mmHg 33%
    09:00 +33°C° 0 mm 3 mps 753 mmHg 28%
    10:00 +35°C° 0 mm 3 mps 753 mmHg 24%
    11:00 +37°C° 0 mm 3 mps 753 mmHg 21%
    12:00 +39°C° 0 mm 3 mps 753 mmHg 17%
    13:00 +39°C° 0 mm 3 mps 753 mmHg 17%
    14:00 +40°C° 0 mm 3 mps 753 mmHg 16%
    15:00 +40°C° 0 mm 3 mps 752 mmHg 15%
    16:00 +39°C° 0 mm 3 mps 752 mmHg 17%
    17:00 +38°C° 0 mm 3 mps 752 mmHg 19%
    18:00 +37°C° 0 mm 3 mps 752 mmHg 21%
    19:00 +36°C° 0 mm 2 mps 752 mmHg 22%
    20:00 +34°C° 0 mm 2 mps 752 mmHg 24%
    21:00 +31°C° 0 mm 2 mps 752 mmHg 25%
    22:00 +32°C° 0 mm 2 mps 752 mmHg 25%
    23:00 +33°C° 0 mm 3 mps 752 mmHg 24%

    24 August, Saturday

    Time Temperature Precipitation Wind Pressure Humidity
    00:00 +33°C° 0 mm 4 mps 752 mmHg 24%
    01:00 +32°C° 0 mm 4 mps 752 mmHg 26%
    02:00 +30°C° 0 mm 3 mps 752 mmHg 29%
    03:00 +29°C° 0 mm 3 mps 752 mmHg 31%
    04:00 +28°C° 0 mm 3 mps 752 mmHg 33%
    05:00 +28°C° 0 mm 2 mps 752 mmHg 36%
    06:00 +28°C° 0 mm 2 mps 752 mmHg 38%
    07:00 +29°C° 0 mm 2 mps 753 mmHg 37%
    08:00 +30°C° 0 mm 2 mps 753 mmHg 36%
    09:00 +31°C° 0 mm 3 mps 753 mmHg 36%
    10:00 +34°C° 0 mm 4 mps 753 mmHg 31%
    11:00 +36°C° 0 mm 5 mps 753 mmHg 27%
    12:00 +39°C° 0 mm 6 mps 753 mmHg 22%
    13:00 +40°C° 0 mm 6 mps 753 mmHg 21%
    14:00 +40°C° 0 mm 6 mps 753 mmHg 20%
    15:00 +41°C° 0 mm 7 mps 752 mmHg 19%
    16:00 +39°C° 0 mm 7 mps 752 mmHg 21%
    17:00 +38°C° 0 mm 6 mps 753 mmHg 23%
    18:00 +35°C° 0 mm 6 mps 753 mmHg 25%
    19:00 +35°C° 0 mm 6 mps 753 mmHg 27%
    20:00 +34°C° 0 mm 5 mps 753 mmHg 28%
    21:00 +33°C° 0 mm 5 mps 754 mmHg 29%
    22:00 +32°C° 0.1 mm 5 mps 754 mmHg 32%
    23:00 +30°C° 0.1 mm 4 mps 754 mmHg 35%

    25 August, Sunday

    Time Temperature Precipitation Wind Pressure Humidity
    00:00 +29°C° 0.1 mm 4 mps 754 mmHg 39%
    01:00 +28°C° 0 mm 4 mps 754 mmHg 41%
    02:00 +27°C° 0 mm 3 mps 754 mmHg 44%
    03:00 +27°C° 0 mm 3 mps 754 mmHg 47%
    04:00 +26°C° 0 mm 3 mps 755 mmHg 49%
    05:00 +26°C° 0 mm 4 mps 755 mmHg 51%
    06:00 +25°C° 0 mm 4 mps 755 mmHg 53%
    07:00 +27°C° 0 mm 4 mps 755 mmHg 48%
    08:00 +29°C° 0 mm 5 mps 756 mmHg 44%
    09:00 +32°C° 0 mm 5 mps 756 mmHg 39%
    10:00 +34°C° 0 mm 5 mps 756 mmHg 34%
    11:00 +35°C° 0 mm 5 mps 756 mmHg 30%
    12:00 +38°C° 0 mm 6 mps 756 mmHg 25%
    13:00 +36°C° 0 mm 6 mps 756 mmHg 26%
    14:00 +36°C° 0 mm 6 mps 756 mmHg 27%
    15:00 +36°C° 0 mm 6 mps 756 mmHg 28%
    16:00 +35°C° 0 mm 5 mps 756 mmHg 31%
    17:00 +34°C° 0 mm 4 mps 756 mmHg 34%
    18:00 +33°C° 0 mm 4 mps 756 mmHg 37%
    19:00 +31°C° 0 mm 3 mps 756 mmHg 40%
    20:00 +29°C° 0 mm 2 mps 756 mmHg 43%
    21:00 +28°C° 0 mm 2 mps 757 mmHg 46%
    22:00 +27°C° 0 mm 2 mps 757 mmHg 47%
    23:00 +26°C° 0 mm 2 mps 757 mmHg 49%
    Show more